QPF
0.01 0.01 0.03 0.03 0.04 0.05 0.08 0.08 0.05 0.05 0.04 0.04 0.04 0.03 0.03 0.02 0.01 0.01 0.02 0.02 0.04 0.04 0.04 0.04 0.04 0.04 0.02 0.02 0.02 0.02 0.02 0.01 0.01 0.02 0.02 0.02 0.02 0.02 0.02 0.02 0.02 0.02 0.04
0.01 0.01 0.02 0.02 0.03 0.04 0.08 0.09 0.05 0.05 0.04 0.04 0.04 0.04 0.03 0.02 0.01 0.02 0.02 0.03 0.03 0.03 0.05 0.08 0.04 0.02 0.01 0.01 0.01 0.01 0.01 0.01 0.01 0.01 0.01 0.01 0.02 0.02 0.02 0.02 0.02 0.03 0.04
0.01 0.01 0.01 0.02 0.04 0.04 0.05 0.06 0.07 0.06 0.04 0.03 0.04 0.05 0.04 0.04 0.03 0.03 0.02 0.02 0.02 0.04 0.05 0.05 0.03 0.02 0.01 0.01 0.01 0.01 0.01 0.01 0.00 0.00 0.00 0.00 0.01 0.01 0.02 0.02 0.03 0.03 0.03
0.02 0.01 0.01 0.02 0.04 0.05 0.05 0.04 0.07 0.08 0.05 0.03 0.04 0.04 0.04 0.04 0.04 0.05 0.04 0.02 0.02 0.06 0.04 0.03 0.02 0.01 0.01 0.01 0.01 0.01 0.01 0.01 0.00 0.00 0.00 0.00 0.00 0.01 0.01 0.02 0.03 0.03 0.03
0.02 0.01 0.01 0.02 0.04 0.05 0.05 0.04 0.06 0.07 0.05 0.04 0.04 0.04 0.04 0.03 0.03 0.05 0.04 0.02 0.02 0.03 0.02 0.02 0.01 0.01 0.01 0.01 0.01 0.01 0.01 0.01 0.00 0.00 0.00 0.00 0.00 0.02 0.02 0.02 0.03 0.03 0.03
0.01 0.02 0.01 0.02 0.03 0.05 0.05 0.05 0.05 0.08 0.07 0.04 0.04 0.03 0.04 0.04 0.02 0.01 0.01 0.02 0.02 0.02 0.01 0.01 0.01 0.01 0.01 0.01 0.01 0.01 0.00 0.00 0.00 0.00 0.00 0.00 0.01 0.02 0.02 0.01 0.01 0.02 0.02
0.01 0.01 0.01 0.02 0.02 0.03 0.05 0.06 0.05 0.07 0.09 0.05 0.03 0.04 0.05 0.04 0.03 0.02 0.01 0.02 0.02 0.01 0.01 0.01 0.01 0.01 0.01 0.01 0.01 0.01 0.00 0.00 0.00 0.00 0.00 0.00 0.01 0.01 0.01 0.01 0.01 0.01 0.02
0.03 0.03 0.02 0.02 0.02 0.02 0.04 0.05 0.06 0.07 0.10 0.07 0.06 0.07 0.05 0.04 0.03 0.03 0.03 0.02 0.01 0.01 0.01 0.02 0.01 0.01 0.01 0.01 0.01 0.00 0.00 0.00 0.00 0.00 0.00 0.00 0.01 0.02 0.01 0.01 0.02 0.02 0.02
0.03 0.03 0.03 0.03 0.02 0.02 0.03 0.04 0.06 0.07 0.10 0.08 0.06 0.08 0.08 0.06 0.04 0.03 0.03 0.02 0.02 0.01 0.01 0.01 0.01 0.01 0.01 0.01 0.01 0.00 0.00 0.00 0.00 0.00 0.00 0.00 0.01 0.02 0.01 0.01 0.02 0.02 0.03
0.02 0.03 0.03 0.03 0.03 0.02 0.02 0.03 0.05 0.07 0.09 0.07 0.04 0.06 0.09 0.08 0.05 0.04 0.03 0.02 0.02 0.02 0.01 0.01 0.01 0.01 0.01 0.01 0.01 0.01 0.00 0.00 0.00 0.00 0.00 0.00 0.01 0.02 0.01 0.01 0.01 0.02 0.03
0.02 0.02 0.03 0.02 0.03 0.03 0.02 0.02 0.05 0.07 0.08 0.08 0.04 0.04 0.08 0.08 0.06 0.04 0.03 0.03 0.03 0.02 0.01 0.01 0.01 0.01 0.01 0.00 0.01 0.01 0.00 0.00 0.00 0.00 0.00 0.00 0.01 0.03 0.03 0.02 0.02 0.02 0.03
0.03 0.04 0.04 0.03 0.03 0.04 0.04 0.03 0.04 0.06 0.08 0.09 0.05 0.04 0.05 0.07 0.08 0.06 0.03 0.03 0.04 0.02 0.02 0.02 0.01 0.01 0.00 0.00 0.00 0.00 0.00 0.00 0.00 0.00 0.00 0.00 0.01 0.03 0.04 0.02 0.02 0.02 0.03
0.03 0.04 0.06 0.07 0.06 0.06 0.06 0.05 0.05 0.06 0.08 0.11 0.09 0.05 0.05 0.06 0.08 0.07 0.04 0.03 0.03 0.02 0.01 0.01 0.01 0.00 0.00 0.00 0.00 0.00 0.00 0.00 0.00 0.00 0.00 0.00 0.01 0.03 0.04 0.03 0.02 0.02 0.03
0.05 0.05 0.06 0.09 0.09 0.08 0.08 0.08 0.07 0.08 0.10 0.11 0.12 0.09 0.04 0.04 0.06 0.06 0.04 0.02 0.01 0.01 0.01 0.01 0.00 0.00 0.00 0.00 0.00 0.00 0.00 0.00 0.00 0.01 0.01 0.01 0.01 0.02 0.02 0.04 0.04 0.03 0.03
0.06 0.07 0.09 0.07 0.09 0.09 0.10 0.10 0.09 0.10 0.10 0.12 0.12 0.10 0.07 0.03 0.04 0.04 0.03 0.02 0.01 0.01 0.01 0.01 0.00 0.00 0.00 0.00 0.00 0.00 0.00 0.00 0.00 0.00 0.01 0.01 0.01 0.01 0.02 0.03 0.05 0.06 0.05
0.05 0.05 0.07 0.07 0.07 0.08 0.09 0.10 0.09 0.09 0.11 0.12 0.12 0.09 0.07 0.05 0.03 0.03 0.03 0.03 0.02 0.02 0.01 0.01 0.01 0.00 0.00 0.00 0.00 0.00 0.00 0.00 0.00 0.00 0.00 0.00 0.01 0.01 0.02 0.03 0.04 0.06 0.06
0.05 0.05 0.06 0.09 0.08 0.08 0.08 0.09 0.09 0.08 0.09 0.09 0.10 0.09 0.08 0.06 0.03 0.03 0.03 0.03 0.03 0.04 0.04 0.03 0.02 0.01 0.01 0.00 0.00 0.00 0.00 0.01 0.00 0.00 0.00 0.00 0.00 0.01 0.01 0.03 0.04 0.06 0.06
0.03 0.04 0.05 0.08 0.12 0.11 0.08 0.09 0.10 0.10 0.10 0.10 0.08 0.09 0.10 0.09 0.06 0.03 0.03 0.03 0.03 0.03 0.03 0.03 0.03 0.03 0.02 0.01 0.01 0.01 0.01 0.01 0.01 0.01 0.00 0.00 0.00 0.00 0.00 0.01 0.02 0.04 0.05
0.02 0.03 0.03 0.04 0.08 0.12 0.13 0.11 0.12 0.11 0.10 0.11 0.11 0.10 0.11 0.11 0.08 0.04 0.02 0.02 0.02 0.02 0.02 0.02 0.02 0.03 0.02 0.02 0.01 0.01 0.01 0.00 0.00 0.01 0.01 0.01 0.01 0.00 0.01 0.01 0.02 0.03 0.06
0.01 0.01 0.02 0.02 0.05 0.07 0.09 0.13 0.13 0.11 0.11 0.12 0.11 0.10 0.10 0.10 0.09 0.07 0.03 0.02 0.03 0.03 0.03 0.02 0.02 0.02 0.03 0.02 0.02 0.01 0.00 0.00 0.00 0.00 0.00 0.00 0.01 0.01 0.01 0.02 0.02 0.04 0.06
0.01 0.01 0.01 0.02 0.04 0.06 0.07 0.10 0.14 0.15 0.13 0.13 0.11 0.10 0.09 0.09 0.09 0.09 0.06 0.03 0.02 0.03 0.03 0.03 0.02 0.03 0.03 0.03 0.03 0.02 0.01 0.00 0.00 0.00 0.00 0.00 0.00 0.00 0.01 0.03 0.03 0.03 0.05
0.01 0.01 0.02 0.01 0.01 0.04 0.07 0.08 0.11 0.14 0.14 0.15 0.14 0.12 0.10 0.10 0.10 0.09 0.09 0.07 0.04 0.03 0.03 0.03 0.03 0.03 0.03 0.04 0.04 0.03 0.03 0.02 0.01 0.01 0.01 0.01 0.01 0.01 0.02 0.04 0.05 0.05 0.03
0.01 0.02 0.03 0.01 0.00 0.01 0.04 0.07 0.08 0.11 0.12 0.13 0.15 0.13 0.12 0.11 0.12 0.11 0.11 0.10 0.08 0.05 0.04 0.04 0.04 0.04 0.05 0.06 0.05 0.05 0.05 0.06 0.04 0.02 0.02 0.02 0.03 0.03 0.04 0.06 0.07 0.05 0.03
0.01 0.02 0.03 0.02 0.00 0.00 0.01 0.04 0.06 0.09 0.10 0.11 0.14 0.13 0.12 0.12 0.12 0.13 0.13 0.13 0.11 0.09 0.07 0.05 0.05 0.06 0.06 0.07 0.06 0.04 0.04 0.04 0.05 0.06 0.04 0.03 0.02 0.03 0.05 0.06 0.07 0.07 0.05
0.00 0.01 0.04 0.04 0.01 0.00 0.00 0.01 0.03 0.04 0.06 0.07 0.10 0.12 0.10 0.10 0.12 0.12 0.13 0.14 0.14 0.13 0.10 0.08 0.06 0.05 0.05 0.07 0.08 0.06 0.04 0.03 0.03 0.03 0.04 0.03 0.02 0.03 0.05 0.06 0.08 0.08 0.08
0.00 0.01 0.03 0.05 0.02 0.00 0.00 0.00 0.01 0.01 0.02 0.03 0.06 0.10 0.09 0.08 0.09 0.11 0.12 0.12 0.12 0.13 0.13 0.12 0.10 0.08 0.06 0.05 0.06 0.07 0.06 0.06 0.04 0.03 0.03 0.04 0.04 0.04 0.05 0.06 0.07 0.08 0.08
MSLP
1014.26 1013.98 1013.90 1014.03 1014.30 1014.65 1015.01 1015.31 1015.54 1015.67 1015.74 1015.78 1015.84 1015.93 1016.07 1016.24 1016.41 1016.54 1016.62 1016.65 1016.62 1016.57 1016.53 1016.54 1016.61 1016.73 1016.91 1017.11 1017.30 1017.47 1017.60 1017.69 1017.75 1017.80 1017.85 1017.91 1017.97 1018.04 1018.10 1018.15 1018.18 1018.20 1018.21
1013.94 1013.75 1013.75 1013.93 1014.26 1014.65 1015.04 1015.38 1015.62 1015.78 1015.87 1015.94 1016.03 1016.15 1016.32 1016.51 1016.70 1016.86 1016.96 1017.00 1016.99 1016.95 1016.93 1016.93 1016.99 1017.09 1017.23 1017.38 1017.53 1017.66 1017.75 1017.83 1017.89 1017.95 1018.02 1018.09 1018.17 1018.25 1018.30 1018.34 1018.36 1018.36 1018.37
1013.61 1013.52 1013.60 1013.85 1014.22 1014.66 1015.09 1015.46 1015.74 1015.93 1016.06 1016.16 1016.27 1016.41 1016.58 1016.78 1016.97 1017.13 1017.23 1017.28 1017.28 1017.26 1017.25 1017.26 1017.32 1017.41 1017.52 1017.64 1017.74 1017.83 1017.91 1017.97 1018.03 1018.11 1018.19 1018.28 1018.37 1018.45 1018.50 1018.52 1018.52 1018.52 1018.52
1013.36 1013.35 1013.50 1013.81 1014.23 1014.70 1015.16 1015.56 1015.87 1016.09 1016.24 1016.37 1016.49 1016.64 1016.81 1017.00 1017.18 1017.32 1017.42 1017.47 1017.48 1017.48 1017.49 1017.53 1017.59 1017.67 1017.77 1017.87 1017.95 1018.02 1018.07 1018.13 1018.19 1018.27 1018.37 1018.48 1018.57 1018.64 1018.68 1018.70 1018.69 1018.67 1018.67
1013.25 1013.30 1013.51 1013.85 1014.30 1014.78 1015.25 1015.65 1015.97 1016.21 1016.38 1016.51 1016.65 1016.80 1016.97 1017.14 1017.30 1017.42 1017.51 1017.56 1017.59 1017.62 1017.66 1017.72 1017.81 1017.91 1018.01 1018.09 1018.16 1018.21 1018.25 1018.29 1018.36 1018.44 1018.55 1018.66 1018.75 1018.82 1018.86 1018.86 1018.85 1018.84 1018.85
1013.29 1013.39 1013.62 1013.98 1014.41 1014.88 1015.33 1015.71 1016.02 1016.25 1016.42 1016.57 1016.71 1016.87 1017.04 1017.20 1017.35 1017.46 1017.55 1017.60 1017.65 1017.70 1017.78 1017.88 1018.00 1018.12 1018.23 1018.31 1018.37 1018.40 1018.42 1018.46 1018.52 1018.60 1018.70 1018.82 1018.91 1018.98 1019.02 1019.03 1019.03 1019.03 1019.05
1013.47 1013.59 1013.82 1014.16 1014.57 1014.99 1015.39 1015.73 1016.00 1016.22 1016.39 1016.54 1016.70 1016.88 1017.06 1017.23 1017.38 1017.49 1017.58 1017.65 1017.72 1017.80 1017.90 1018.04 1018.18 1018.33 1018.44 1018.52 1018.57 1018.58 1018.59 1018.61 1018.65 1018.73 1018.83 1018.94 1019.04 1019.12 1019.17 1019.19 1019.21 1019.24 1019.28
1013.73 1013.86 1014.08 1014.39 1014.74 1015.11 1015.44 1015.72 1015.95 1016.14 1016.30 1016.48 1016.66 1016.87 1017.08 1017.27 1017.44 1017.57 1017.67 1017.75 1017.83 1017.93 1018.06 1018.22 1018.38 1018.53 1018.65 1018.73 1018.75 1018.75 1018.73 1018.73 1018.75 1018.82 1018.91 1019.03 1019.14 1019.23 1019.30 1019.35 1019.40 1019.46 1019.54
1014.00 1014.13 1014.35 1014.62 1014.93 1015.22 1015.49 1015.71 1015.90 1016.06 1016.23 1016.42 1016.65 1016.90 1017.15 1017.39 1017.58 1017.74 1017.85 1017.94 1018.03 1018.13 1018.27 1018.43 1018.59 1018.74 1018.85 1018.91 1018.91 1018.88 1018.84 1018.81 1018.82 1018.87 1018.96 1019.08 1019.20 1019.31 1019.41 1019.50 1019.58 1019.67 1019.79
1014.20 1014.35 1014.57 1014.83 1015.10 1015.35 1015.56 1015.73 1015.88 1016.03 1016.21 1016.43 1016.70 1017.00 1017.31 1017.59 1017.82 1017.99 1018.11 1018.20 1018.29 1018.38 1018.51 1018.65 1018.80 1018.94 1019.02 1019.06 1019.04 1018.99 1018.92 1018.87 1018.86 1018.90 1018.99 1019.11 1019.25 1019.38 1019.50 1019.62 1019.73 1019.86 1020.00
1014.30 1014.49 1014.73 1014.99 1015.25 1015.48 1015.66 1015.80 1015.92 1016.07 1016.26 1016.52 1016.83 1017.18 1017.53 1017.85 1018.11 1018.30 1018.43 1018.51 1018.57 1018.65 1018.75 1018.87 1019.00 1019.11 1019.18 1019.19 1019.15 1019.07 1018.99 1018.92 1018.90 1018.93 1019.01 1019.14 1019.28 1019.43 1019.57 1019.71 1019.84 1019.98 1020.14
1014.27 1014.51 1014.80 1015.09 1015.37 1015.59 1015.76 1015.89 1016.01 1016.16 1016.37 1016.66 1017.01 1017.39 1017.78 1018.13 1018.41 1018.60 1018.72 1018.79 1018.84 1018.89 1018.96 1019.06 1019.16 1019.25 1019.30 1019.30 1019.24 1019.16 1019.06 1018.98 1018.95 1018.97 1019.05 1019.17 1019.32 1019.47 1019.61 1019.75 1019.88 1020.02 1020.18
1014.13 1014.43 1014.77 1015.11 1015.42 1015.66 1015.84 1015.98 1016.11 1016.27 1016.50 1016.80 1017.17 1017.58 1017.98 1018.34 1018.63 1018.83 1018.94 1019.00 1019.03 1019.07 1019.12 1019.20 1019.28 1019.36 1019.40 1019.40 1019.34 1019.25 1019.15 1019.07 1019.02 1019.04 1019.10 1019.21 1019.35 1019.49 1019.62 1019.74 1019.86 1019.98 1020.13
1013.90 1014.26 1014.65 1015.04 1015.38 1015.65 1015.85 1016.01 1016.16 1016.34 1016.57 1016.88 1017.26 1017.67 1018.07 1018.44 1018.72 1018.92 1019.04 1019.10 1019.13 1019.16 1019.21 1019.29 1019.37 1019.45 1019.50 1019.50 1019.45 1019.36 1019.26 1019.18 1019.12 1019.12 1019.17 1019.25 1019.36 1019.48 1019.58 1019.68 1019.76 1019.86 1019.98
1013.61 1014.01 1014.43 1014.85 1015.22 1015.53 1015.76 1015.95 1016.12 1016.31 1016.55 1016.86 1017.22 1017.62 1018.01 1018.37 1018.65 1018.86 1018.98 1019.06 1019.11 1019.16 1019.23 1019.32 1019.43 1019.52 1019.58 1019.60 1019.56 1019.49 1019.39 1019.30 1019.23 1019.21 1019.22 1019.28 1019.35 1019.43 1019.50 1019.56 1019.62 1019.68 1019.77
1013.28 1013.68 1014.12 1014.56 1014.95 1015.28 1015.54 1015.76 1015.95 1016.16 1016.40 1016.70 1017.05 1017.42 1017.79 1018.14 1018.42 1018.64 1018.79 1018.90 1018.99 1019.08 1019.19 1019.32 1019.45 1019.57 1019.65 1019.69 1019.67 1019.60 1019.51 1019.41 1019.32 1019.26 1019.24 1019.26 1019.29 1019.33 1019.37 1019.40 1019.43 1019.47 1019.54
1012.93 1013.31 1013.72 1014.15 1014.55 1014.90 1015.20 1015.45 1015.68 1015.90 1016.15 1016.44 1016.76 1017.10 1017.45 1017.78 1018.07 1018.30 1018.50 1018.66 1018.80 1018.94 1019.10 1019.26 1019.43 1019.57 1019.68 1019.73 1019.73 1019.67 1019.58 1019.46 1019.35 1019.27 1019.21 1019.18 1019.17 1019.18 1019.19 1019.21 1019.22 1019.26 1019.32
1012.55 1012.87 1013.24 1013.64 1014.04 1014.41 1014.75 1015.04 1015.31 1015.57 1015.82 1016.10 1016.40 1016.71 1017.04 1017.35 1017.64 1017.90 1018.13 1018.34 1018.54 1018.74 1018.94 1019.15 1019.34 1019.51 1019.63 1019.70 1019.71 1019.66 1019.56 1019.44 1019.31 1019.20 1019.10 1019.04 1019.00 1018.98 1018.98 1018.99 1019.01 1019.05 1019.11
1012.12 1012.37 1012.69 1013.06 1013.45 1013.85 1014.22 1014.57 1014.89 1015.18 1015.46 1015.73 1016.01 1016.30 1016.59 1016.88 1017.17 1017.45 1017.72 1017.98 1018.23 1018.47 1018.71 1018.95 1019.16 1019.34 1019.48 1019.56 1019.58 1019.54 1019.45 1019.33 1019.19 1019.05 1018.93 1018.84 1018.77 1018.74 1018.73 1018.75 1018.79 1018.85 1018.93
1011.62 1011.79 1012.05 1012.39 1012.79 1013.22 1013.65 1014.06 1014.44 1014.77 1015.07 1015.35 1015.61 1015.86 1016.13 1016.40 1016.69 1016.98 1017.27 1017.56 1017.84 1018.12 1018.39 1018.64 1018.86 1019.05 1019.19 1019.29 1019.32 1019.30 1019.23 1019.11 1018.98 1018.83 1018.70 1018.59 1018.51 1018.47 1018.46 1018.49 1018.56 1018.64 1018.75
1011.03 1011.14 1011.35 1011.66 1012.07 1012.53 1013.02 1013.50 1013.94 1014.33 1014.66 1014.94 1015.19 1015.42 1015.65 1015.90 1016.17 1016.46 1016.76 1017.07 1017.37 1017.67 1017.94 1018.20 1018.42 1018.62 1018.77 1018.88 1018.94 1018.95 1018.90 1018.82 1018.70 1018.57 1018.43 1018.31 1018.22 1018.18 1018.17 1018.22 1018.30 1018.41 1018.53
1010.34 1010.40 1010.57 1010.87 1011.28 1011.78 1012.33 1012.87 1013.38 1013.82 1014.18 1014.47 1014.71 1014.92 1015.13 1015.35 1015.60 1015.88 1016.18 1016.50 1016.81 1017.10 1017.38 1017.63 1017.85 1018.05 1018.22 1018.35 1018.45 1018.50 1018.51 1018.47 1018.38 1018.27 1018.14 1018.02 1017.93 1017.87 1017.86 1017.91 1018.00 1018.12 1018.25
1009.59 1009.60 1009.73 1010.01 1010.43 1010.95 1011.54 1012.14 1012.70 1013.19 1013.59 1013.89 1014.13 1014.33 1014.52 1014.73 1014.96 1015.23 1015.53 1015.84 1016.14 1016.44 1016.70 1016.95 1017.17 1017.38 1017.57 1017.74 1017.88 1017.99 1018.06 1018.07 1018.03 1017.95 1017.84 1017.72 1017.62 1017.55 1017.53 1017.57 1017.65 1017.77 1017.90
1008.80 1008.76 1008.86 1009.11 1009.52 1010.05 1010.66 1011.29 1011.89 1012.42 1012.85 1013.18 1013.43 1013.64 1013.82 1014.03 1014.26 1014.52 1014.81 1015.12 1015.42 1015.70 1015.97 1016.21 1016.43 1016.65 1016.87 1017.08 1017.28 1017.45 1017.58 1017.65 1017.67 1017.62 1017.53 1017.41 1017.30 1017.21 1017.17 1017.18 1017.25 1017.35 1017.47
1008.04 1007.96 1008.01 1008.22 1008.58 1009.09 1009.70 1010.34 1010.97 1011.53 1011.99 1012.35 1012.63 1012.85 1013.06 1013.27 1013.51 1013.78 1014.07 1014.38 1014.67 1014.95 1015.21 1015.45 1015.68 1015.92 1016.16 1016.42 1016.66 1016.90 1017.09 1017.22 1017.28 1017.26 1017.19 1017.08 1016.95 1016.85 1016.78 1016.77 1016.81 1016.88 1016.98
1007.41 1007.27 1007.25 1007.39 1007.69 1008.16 1008.73 1009.36 1009.99 1010.57 1011.06 1011.46 1011.78 1012.04 1012.28 1012.52 1012.78 1013.06 1013.36 1013.67 1013.96 1014.24 1014.49 1014.73 1014.97 1015.22 1015.49 1015.77 1016.06 1016.34 1016.58 1016.76 1016.86 1016.88 1016.82 1016.71 1016.58 1016.46 1016.38 1016.33 1016.34 1016.39 1016.46
Thickness
5717 5719 5721 5722 5723 5724 5725 5726 5727 5727 5727 5727 5727 5726 5726 5726 5726 5725 5725 5725 5724 5724 5724 5724 5724 5723 5723 5722 5721 5720 5720 5719 5719 5719 5718 5718 5718 5718 5717 5717 5717 5716 5716
5716 5717 5718 5719 5720 5721 5722 5722 5723 5723 5724 5723 5723 5724 5724 5723 5723 5723 5722 5722 5721 5721 5721 5721 5720 5720 5719 5719 5718 5717 5716 5716 5715 5715 5715 5715 5714 5714 5714 5713 5713 5713 5713
5712 5714 5715 5716 5717 5717 5718 5719 5720 5720 5720 5720 5720 5720 5720 5720 5720 5720 5719 5719 5718 5718 5717 5717 5717 5716 5716 5715 5714 5713 5713 5712 5711 5711 5711 5711 5711 5711 5711 5710 5710 5710 5709
5708 5709 5710 5712 5713 5714 5714 5715 5716 5716 5716 5716 5716 5716 5716 5716 5716 5716 5716 5715 5715 5715 5714 5713 5713 5713 5712 5711 5710 5710 5709 5708 5707 5707 5707 5707 5707 5707 5707 5707 5706 5706 5705
5703 5704 5705 5707 5709 5710 5710 5711 5712 5712 5712 5713 5713 5712 5712 5712 5712 5712 5712 5711 5711 5711 5710 5709 5709 5709 5708 5707 5706 5706 5705 5704 5703 5703 5703 5703 5703 5703 5703 5703 5702 5702 5701
5697 5698 5700 5702 5704 5705 5706 5707 5707 5708 5708 5708 5708 5708 5708 5708 5708 5708 5707 5707 5707 5706 5706 5705 5705 5704 5703 5703 5702 5701 5700 5700 5699 5699 5699 5699 5699 5699 5699 5698 5698 5697 5697
5691 5693 5695 5697 5698 5700 5701 5702 5702 5703 5703 5704 5704 5704 5704 5704 5703 5703 5703 5703 5703 5702 5702 5701 5700 5700 5699 5698 5698 5697 5696 5695 5695 5695 5694 5694 5694 5695 5695 5694 5694 5693 5692
5684 5687 5689 5691 5692 5694 5695 5696 5697 5698 5698 5699 5699 5699 5699 5699 5698 5699 5698 5698 5698 5698 5697 5697 5696 5695 5694 5694 5693 5692 5691 5691 5690 5690 5690 5690 5690 5690 5690 5690 5689 5689 5688
5678 5680 5682 5684 5685 5687 5688 5690 5691 5692 5693 5693 5694 5694 5694 5693 5693 5693 5693 5693 5693 5693 5692 5692 5691 5690 5689 5689 5688 5687 5687 5686 5685 5685 5685 5685 5685 5685 5685 5685 5685 5684 5683
5670 5673 5675 5677 5679 5680 5682 5684 5685 5686 5687 5688 5688 5688 5688 5687 5687 5687 5687 5687 5687 5687 5687 5686 5686 5685 5684 5683 5683 5682 5681 5681 5680 5680 5680 5679 5680 5680 5680 5680 5680 5679 5678
5662 5664 5667 5669 5672 5674 5676 5677 5678 5679 5681 5681 5682 5681 5681 5681 5681 5681 5681 5681 5681 5681 5680 5680 5680 5679 5678 5678 5677 5677 5676 5675 5675 5674 5674 5674 5674 5674 5674 5674 5674 5673 5673
5653 5656 5658 5661 5663 5666 5668 5670 5671 5673 5673 5674 5675 5675 5675 5675 5675 5675 5675 5675 5674 5674 5674 5674 5673 5672 5672 5672 5671 5671 5670 5669 5669 5668 5668 5668 5668 5668 5668 5668 5668 5667 5667
5644 5647 5650 5652 5655 5658 5660 5662 5664 5665 5666 5667 5668 5668 5668 5668 5668 5668 5668 5668 5668 5667 5667 5667 5666 5666 5665 5665 5665 5664 5664 5663 5662 5662 5661 5661 5662 5662 5662 5662 5661 5661 5661
5636 5638 5642 5645 5647 5650 5652 5655 5656 5657 5658 5660 5661 5661 5662 5661 5661 5661 5661 5661 5660 5660 5659 5659 5659 5659 5658 5658 5658 5657 5657 5656 5655 5655 5655 5654 5654 5655 5655 5655 5655 5654 5655
5628 5631 5634 5637 5640 5642 5644 5647 5648 5650 5651 5652 5653 5654 5655 5655 5655 5654 5654 5653 5653 5652 5652 5651 5651 5651 5651 5650 5650 5649 5649 5649 5648 5647 5647 5647 5647 5646 5647 5647 5647 5647 5647
5619 5623 5625 5628 5631 5634 5637 5639 5641 5642 5643 5644 5645 5646 5647 5648 5648 5647 5646 5646 5646 5645 5645 5644 5644 5643 5643 5642 5641 5641 5641 5641 5640 5640 5639 5639 5638 5638 5638 5638 5639 5640 5640
5610 5613 5616 5619 5622 5625 5628 5631 5633 5634 5635 5636 5637 5639 5640 5640 5640 5640 5639 5639 5638 5638 5637 5636 5635 5635 5635 5634 5633 5633 5632 5632 5632 5631 5631 5630 5629 5629 5629 5629 5630 5631 5632
5602 5604 5607 5610 5613 5617 5619 5622 5624 5625 5626 5628 5629 5631 5632 5632 5632 5632 5632 5631 5630 5630 5629 5628 5627 5627 5626 5625 5624 5624 5624 5623 5623 5622 5621 5620 5619 5619 5619 5620 5621 5622 5623
5593 5596 5598 5601 5604 5608 5611 5613 5616 5617 5618 5619 5621 5622 5623 5624 5624 5624 5624 5623 5622 5622 5621 5620 5619 5618 5617 5616 5616 5616 5615 5615 5614 5613 5612 5610 5610 5610 5610 5610 5611 5612 5613
5585 5587 5590 5592 5596 5600 5602 5604 5606 5608 5610 5611 5612 5613 5615 5615 5615 5615 5615 5614 5614 5613 5612 5612 5610 5609 5608 5607 5608 5607 5606 5606 5605 5604 5602 5601 5600 5600 5600 5600 5601 5601 5603
5577 5579 5581 5584 5588 5592 5594 5595 5596 5597 5600 5602 5604 5606 5606 5607 5607 5607 5607 5606 5606 5606 5604 5603 5602 5600 5598 5598 5598 5597 5597 5597 5596 5595 5593 5592 5591 5590 5590 5590 5590 5591 5592
5569 5570 5573 5575 5579 5582 5585 5586 5588 5589 5591 5593 5594 5596 5597 5597 5597 5599 5598 5597 5597 5597 5596 5595 5593 5591 5589 5588 5587 5586 5586 5586 5586 5586 5584 5583 5582 5580 5580 5579 5579 5580 5581
5559 5561 5565 5567 5570 5572 5575 5577 5579 5580 5581 5582 5583 5586 5587 5588 5588 5589 5589 5589 5588 5588 5587 5586 5585 5583 5581 5578 5578 5577 5574 5574 5574 5575 5574 5573 5571 5571 5570 5570 5570 5570 5571
5551 5553 5556 5558 5560 5563 5565 5567 5569 5572 5572 5572 5574 5576 5577 5579 5579 5579 5580 5580 5579 5578 5578 5577 5576 5575 5573 5570 5568 5567 5566 5565 5562 5563 5564 5563 5562 5561 5561 5560 5560 5561 5562
5543 5544 5546 5548 5551 5553 5555 5558 5559 5560 5562 5562 5565 5566 5567 5568 5570 5570 5571 5571 5570 5569 5568 5567 5567 5566 5565 5563 5560 5557 5555 5554 5552 5552 5553 5553 5552 5552 5552 5552 5552 5553 5553
5533 5535 5537 5539 5541 5543 5545 5547 5548 5549 5550 5552 5554 5555 5556 5557 5559 5560 5561 5561 5561 5560 5559 5558 5557 5556 5555 5554 5551 5549 5548 5546 5544 5543 5542 5542 5542 5543 5543 5543 5544 5544 5545